�N����,����,�g�[���i���ԁj���x,�g�[�����x,��g�[���i���ցj���x,����
 2004/11/01, 0:00,20.2,79,18.2,18.6
 2004/11/01, 0:15,20.1,79,18.1,18.6
 2004/11/01, 0:30,20,80,18.1,18.6
 2004/11/01, 0:45,20,80,18.1,18.6
 2004/11/01, 1:00,20,80,18.1,18.6
 2004/11/01, 1:15,19.9,81,18.1,18.6
 2004/11/01, 1:30,19.9,80,18.1,18.6
 2004/11/01, 1:45,19.8,81,18.1,18.6
 2004/11/01, 2:00,19.8,81,18.1,18.6
 2004/11/01, 2:15,19.8,81,18.1,18.6
 2004/11/01, 2:30,19.8,81,18.1,18.5
 2004/11/01, 2:45,19.6,82,18.1,18.6
 2004/11/01, 3:00,19.6,81,18.1,18.5
 2004/11/01, 3:15,19.6,81,18.1,18.5
 2004/11/01, 3:30,19.5,81,18.1,18.5
 2004/11/01, 3:45,19.5,82,18.1,18.5
 2004/11/01, 4:00,19.5,81,18.1,18.5
 2004/11/01, 4:15,19.5,82,18,18.5
 2004/11/01, 4:30,19.4,79,18.1,18.5
 2004/11/01, 4:45,19.5,80,18.2,18.4
 2004/11/01, 5:00,19.4,81,18.1,18.4
 2004/11/01, 5:15,19.4,82,18,18.4
 2004/11/01, 5:30,19.4,82,18,18.4
 2004/11/01, 5:45,19.4,81,18,18.4
 2004/11/01, 6:00,19.4,81,18,18.4
 2004/11/01, 6:15,19.9,86,18.1,18.9
 2004/11/01, 6:30,20.2,87,18.1,18.9
 2004/11/01, 6:45,19.5,82,18.3,18.5
 2004/11/01, 7:00,19.5,82,18.3,18.7
 2004/11/01, 7:15,19.7,82,18.4,18.7
 2004/11/01, 7:30,19.6,80,18.4,18.7
 2004/11/01, 7:45,19.6,79,18.4,18.7
 2004/11/01, 8:00,19.5,79,18.5,18.7
 2004/11/01, 8:15,19.5,80,18.4,18.8
 2004/11/01, 8:30,19.8,79,18.5,18.7
 2004/11/01, 8:45,19.7,79,18.6,18.7
 2004/11/01, 9:00,19.4,79,18.5,18.7
 2004/11/01, 9:15,19.3,79,18.5,18.7
 2004/11/01, 9:30,19.4,79,18.5,18.7
 2004/11/01, 9:45,19.4,79,18.6,18.7
 2004/11/01,10:00,19.4,79,18.7,18.7
 2004/11/01,10:15,19.5,78,18.9,18.7
 2004/11/01,10:30,19.6,77,18.9,18.7
 2004/11/01,10:45,19.8,77,19.1,18.7
 2004/11/01,11:00,20.2,74,19.1,18.7
 2004/11/01,11:15,20,75,19.3,18.9
 2004/11/01,11:30,20.3,76,19.6,19
 2004/11/01,11:45,21,74,19.8,18.9
 2004/11/01,12:00,20.7,73,19.7,19
 2004/11/01,12:15,20.6,73,19.6,19
 2004/11/01,12:30,21.2,71,19.7,19
 2004/11/01,12:45,21.2,69,19.9,19
 2004/11/01,13:00,21.6,68,20.6,19
 2004/11/01,13:15,21.8,70,20.6,19
 2004/11/01,13:30,21.9,69,20.4,19
 2004/11/01,13:45,21.6,68,20.4,19
 2004/11/01,14:00,21.4,68,20.3,18.8
 2004/11/01,14:15,21.6,66,20.3,18.8
 2004/11/01,14:30,21.5,66,20.3,18.9
 2004/11/01,14:45,21.6,66,20.3,18.9
 2004/11/01,15:00,21.5,66,20.3,18.9
 2004/11/01,15:15,22.2,64,20.3,18.9
 2004/11/01,15:30,22.2,63,20.4,18.8
 2004/11/01,15:45,22.2,63,20.4,18.8
 2004/11/01,16:00,21.9,63,20.2,18.8
 2004/11/01,16:15,21.7,64,20.2,18.8
 2004/11/01,16:30,21.7,65,20.3,18.5
 2004/11/01,16:45,21.5,66,20.1,19
 2004/11/01,17:00,21.5,67,20.1,19
 2004/11/01,17:15,21.5,68,19.9,19
 2004/11/01,17:30,21.6,68,19.7,19
 2004/11/01,17:45,21.5,69,19.6,19
 2004/11/01,18:00,21.4,70,19.6,18.8
 2004/11/01,18:15,21.1,69,19.5,18.8
 2004/11/01,18:30,20.9,70,19.5,18.8
 2004/11/01,18:45,20.8,71,19.4,18.8
 2004/11/01,19:00,21.6,74,19.3,18.8
 2004/11/01,19:15,21.6,73,19.2,18.8
 2004/11/01,19:30,21.6,74,19.1,18.8
 2004/11/01,19:45,22.1,79,19.1,18.8
 2004/11/01,20:00,22.1,79,19.1,18.8
 2004/11/01,20:15,22,77,19,18.8
 2004/11/01,20:30,21.2,73,18.9,18.8
 2004/11/01,20:45,20.8,72,18.7,18.7
 2004/11/01,21:00,20.7,72,18.7,18.7
 2004/11/01,21:15,20.5,71,18.4,18.7
 2004/11/01,21:30,20.4,71,18.3,18.7
 2004/11/01,21:45,20.3,69,18.2,18.7
 2004/11/01,22:00,20.2,68,18.1,18.7
 2004/11/01,22:15,20.1,68,18.1,18.7
 2004/11/01,22:30,20.2,69,17.9,18.7
 2004/11/01,22:45,20.6,69,18,18.7
 2004/11/01,23:00,20.7,70,17.9,18.7
 2004/11/01,23:15,20.9,71,17.9,18.5
 2004/11/01,23:30,20.9,71,17.9,18.5
 2004/11/01,23:45,20.9,71,17.9,18.5
 2004/11/02, 0:00,20.7,71,17.9,18.4
 2004/11/02, 0:15,20.4,70,17.9,18.7
 2004/11/02, 0:30,20.2,71,17.9,18.7
 2004/11/02, 0:45,20.1,71,17.9,18.7
 2004/11/02, 1:00,20,71,17.8,18.7
 2004/11/02, 1:15,19.9,71,17.8,18.7
 2004/11/02, 1:30,19.8,71,17.7,18.6
 2004/11/02, 1:45,19.7,71,17.7,18.6
 2004/11/02, 2:00,19.6,71,17.6,18.6
 2004/11/02, 2:15,19.5,71,17.5,18.6
 2004/11/02, 2:30,19.4,72,17.5,18.5
 2004/11/02, 2:45,19.4,71,17.5,18.5
 2004/11/02, 3:00,19.3,71,17.4,18.5
 2004/11/02, 3:15,19.2,71,17.3,18.5
 2004/11/02, 3:30,19.2,71,17.2,18.4
 2004/11/02, 3:45,19.1,71,17.2,18.4
 2004/11/02, 4:00,19,71,17.1,18.4
 2004/11/02, 4:15,18.9,71,17,18.3
 2004/11/02, 4:30,19,71,17,18.3
 2004/11/02, 4:45,18.8,71,17,18.3
 2004/11/02, 5:00,18.7,71,16.9,18.2
 2004/11/02, 5:15,18.6,72,16.9,18.2
 2004/11/02, 5:30,18.6,72,16.8,18.2
 2004/11/02, 5:45,18.5,72,16.8,18.1
 2004/11/02, 6:00,18.4,72,16.7,18.1
 2004/11/02, 6:15,18.4,72,16.7,18.1
 2004/11/02, 6:30,18.4,72,16.6,18
 2004/11/02, 6:45,18.4,72,16.6,18
 2004/11/02, 7:00,18.5,73,16.6,18
 2004/11/02, 7:15,18.4,73,16.7,18
 2004/11/02, 7:30,19,73,16.7,18.5
 2004/11/02, 7:45,19.3,71,16.9,18.6
 2004/11/02, 8:00,19.5,68,17.1,18.5
 2004/11/02, 8:15,19.7,67,17.8,18.5
 2004/11/02, 8:30,19.8,66,18.4,18.5
 2004/11/02, 8:45,19.8,64,18.7,18.5
 2004/11/02, 9:00,20.2,70,18.8,18.4
 2004/11/02, 9:15,20.2,64,19.2,18.4
 2004/11/02, 9:30,20.1,63,19.1,18.4
 2004/11/02, 9:45,20,64,19.1,18.4
 2004/11/02,10:00,19.9,63,19.3,18.4
 2004/11/02,10:15,19.8,62,19.4,18.4
 2004/11/02,10:30,19.8,62,19.5,18.4
 2004/11/02,10:45,19.8,62,19.6,18.4
 2004/11/02,11:00,19.9,62,19.7,18.4
 2004/11/02,11:15,20,61,20,18.6
 2004/11/02,11:30,20.2,60,20.3,18.6
 2004/11/02,11:45,20.6,61,20.1,18.6
 2004/11/02,12:00,20.4,60,20.3,18.1
 2004/11/02,12:15,20.6,62,19.8,18.4
 2004/11/02,12:30,20.8,63,19.7,18.4
 2004/11/02,12:45,21,62,19.7,18.4
 2004/11/02,13:00,21.1,62,19.7,18.4
 2004/11/02,13:15,21,57,20.4,18.4
 2004/11/02,13:30,21.1,51,20.8,18.6
 2004/11/02,13:45,21,49,21,18.6
 2004/11/02,14:00,21.3,49,21.1,18.7
 2004/11/02,14:15,21.5,48,21.1,18.7
 2004/11/02,14:30,22,47,21,18.7
 2004/11/02,14:45,22.7,49,20.5,18.7
 2004/11/02,15:00,23,50,20.4,18.8
 2004/11/02,15:15,22.7,52,20.3,18.8
 2004/11/02,15:30,22.4,46,20.6,18.8
 2004/11/02,15:45,22.5,48,20.7,18.5
 2004/11/02,16:00,22.5,50,20.3,18.6
 2004/11/02,16:15,22.4,52,20.2,18.6
 2004/11/02,16:30,22.2,54,20.1,18.6
 2004/11/02,16:45,22.1,55,19.9,18.6
 2004/11/02,17:00,22,56,19.7,18.6
 2004/11/02,17:15,21.9,57,19.4,18.6
 2004/11/02,17:30,21.8,57,19.1,18.6
 2004/11/02,17:45,21.6,57,19,18.6
 2004/11/02,18:00,21.6,58,18.9,18.7
 2004/11/02,18:15,21.4,58,18.4,18.7
 2004/11/02,18:30,21.3,58,18.3,18.7
 2004/11/02,18:45,21.4,60,18,18.5
 2004/11/02,19:00,21.9,64,17.8,18.6
 2004/11/02,19:15,21.4,60,17.5,18.6
 2004/11/02,19:30,20.7,60,17.5,18.6
 2004/11/02,19:45,20.5,60,17.4,18.6
 2004/11/02,20:00,20.3,60,17.1,18.6
 2004/11/02,20:15,20.2,60,17.1,18.6
 2004/11/02,20:30,21.5,61,17,18.6
 2004/11/02,20:45,21.3,61,16.9,18.6
 2004/11/02,21:00,21,62,16.9,18.6
 2004/11/02,21:15,21,64,16.7,18.6
 2004/11/02,21:30,20.9,63,16.6,18.6
 2004/11/02,21:45,20.9,62,16.7,18.3
 2004/11/02,22:00,21,63,16.8,18.3
 2004/11/02,22:15,20.9,63,16.6,18.3
 2004/11/02,22:30,20.9,64,16.6,18.3
 2004/11/02,22:45,21.2,63,16.6,18.4
 2004/11/02,23:00,20.9,64,16.6,18.4
 2004/11/02,23:15,20.8,65,16.5,18.4
 2004/11/02,23:30,20.7,65,16.3,18.3
 2004/11/02,23:45,20.8,66,16.3,18.3
 2004/11/03, 0:00,20.7,66,16.2,18.3
 2004/11/03, 0:15,20.5,66,16.4,17.8
 2004/11/03, 0:30,20.5,66,16.7,18.2
 2004/11/03, 0:45,20.5,66,16.7,18.2
 2004/11/03, 1:00,20.4,66,17,18.2
 2004/11/03, 1:15,20.5,67,17,18.2
 2004/11/03, 1:30,20.1,65,17.1,18.6
 2004/11/03, 1:45,19.8,66,17.1,18.6
 2004/11/03, 2:00,19.6,67,17.1,18.6
 2004/11/03, 2:15,19.5,67,17.2,18.6
 2004/11/03, 2:30,19.3,68,17.1,18.5
 2004/11/03, 2:45,19.2,68,17.1,18.5
 2004/11/03, 3:00,19.1,68,17,18.5
 2004/11/03, 3:15,19,68,17,18.5
 2004/11/03, 3:30,19,68,16.9,18.5
 2004/11/03, 3:45,18.9,68,17,18.4
 2004/11/03, 4:00,18.7,69,16.9,18.4
 2004/11/03, 4:15,18.6,69,16.9,18.4
 2004/11/03, 4:30,18.7,69,16.9,18.4
 2004/11/03, 4:45,18.6,69,16.7,18.4
 2004/11/03, 5:00,18.4,69,16.6,18.3
 2004/11/03, 5:15,18.3,69,16.7,18.3
 2004/11/03, 5:30,18.4,69,16.7,18.3
 2004/11/03, 5:45,18.2,69,16.5,18.3
 2004/11/03, 6:00,18.1,69,16.5,18.3
 2004/11/03, 6:15,18,69,16.3,18.2
 2004/11/03, 6:30,18,69,16.3,18.2
 2004/11/03, 6:45,17.9,69,16.3,18.2
 2004/11/03, 7:00,17.9,69,16.4,18.2
 2004/11/03, 7:15,17.8,69,16.4,18.1
 2004/11/03, 7:30,18.1,68,16.1,18.2
 2004/11/03, 7:45,18.8,68,16.1,18.6
 2004/11/03, 8:00,19.2,63,16.5,18.6
 2004/11/03, 8:15,19.4,63,17.4,18.3
 2004/11/03, 8:30,19.5,62,17.6,18.4
 2004/11/03, 8:45,19.7,61,18.1,18.4
 2004/11/03, 9:00,19.9,59,18.5,18.3
 2004/11/03, 9:15,20.2,60,18.6,18.5
 2004/11/03, 9:30,20.2,61,18.5,18.5
 2004/11/03, 9:45,20.1,63,18.3,18.4
 2004/11/03,10:00,20.5,66,18.5,18.4
 2004/11/03,10:15,20.3,66,18.4,18.4
 2004/11/03,10:30,20.3,65,18.4,18.4
 2004/11/03,10:45,20.3,64,18.4,18.4
 2004/11/03,11:00,20.1,62,18.1,18.3
 2004/11/03,11:15,20,58,18.2,18.3
 2004/11/03,11:30,20.1,53,18.3,18.3
 2004/11/03,11:45,20.1,51,18.4,18.3
 2004/11/03,12:00,20.1,54,18.6,18.3
 2004/11/03,12:15,20.2,56,18.9,18.3
 2004/11/03,12:30,20.8,60,19.1,18
 2004/11/03,12:45,21.5,67,19.3,18.4
 2004/11/03,13:00,21.5,55,19.4,18.7
 2004/11/03,13:15,21.3,53,19.6,18.7
 2004/11/03,13:30,21.1,48,19.9,18.7
 2004/11/03,13:45,21,46,19.7,18.7
 2004/11/03,14:00,21,43,19.8,18.7
 2004/11/03,14:15,21,44,19.5,18.7
 2004/11/03,14:30,20.8,46,19.4,18.5
 2004/11/03,14:45,20.6,50,19.1,18.5
 2004/11/03,15:00,21,59,19.1,18.5
 2004/11/03,15:15,20.9,50,19.1,18.5
 2004/11/03,15:30,20.7,48,19,18.5
 2004/11/03,15:45,20.6,48,18.8,18.5
 2004/11/03,16:00,20.6,49,18.9,18.3
 2004/11/03,16:15,20.4,49,18.6,18.3
 2004/11/03,16:30,20.3,49,18.4,18.4
 2004/11/03,16:45,20.2,49,18.2,18.2
 2004/11/03,17:00,20.1,49,18,18.1
 2004/11/03,17:15,19.7,48,17.6,18.5
 2004/11/03,17:30,19.9,49,17.5,18.5
 2004/11/03,17:45,19.9,49,17.3,18.5
 2004/11/03,18:00,20.4,54,17,18.4
 2004/11/03,18:15,20.1,51,16.9,18.6
 2004/11/03,18:30,19.8,51,16.9,18.6
 2004/11/03,18:45,19.8,53,16.7,18.6
 2004/11/03,19:00,19.7,53,16.7,18.6
 2004/11/03,19:15,19.4,52,16.6,18.4
 2004/11/03,19:30,19.7,52,16.5,18.4
 2004/11/03,19:45,19.8,53,16.4,18.4
 2004/11/03,20:00,19.8,53,16.3,18.4
 2004/11/03,20:15,19.8,53,16.1,18.4
 2004/11/03,20:30,19.9,54,15.8,18.4
 2004/11/03,20:45,19.8,54,15.4,18.4
 2004/11/03,21:00,19.6,54,15.2,18.2
 2004/11/03,21:15,19,53,15.2,18.4
 2004/11/03,21:30,18.6,52,15.1,18.4
 2004/11/03,21:45,18.2,53,15,18.4
 2004/11/03,22:00,18.3,53,15.1,18.3
 2004/11/03,22:15,18.2,53,15,18.3
 2004/11/03,22:30,18.2,53,14.8,18.3
 2004/11/03,22:45,18.1,53,14.8,18.2
 2004/11/03,23:00,18,54,14.6,18.2
 2004/11/03,23:15,17.9,55,14.5,18.2
 2004/11/03,23:30,17.7,56,14.2,18.2
 2004/11/03,23:45,17.8,55,14,18.1
 2004/11/04, 0:00,17.7,56,13.9,18.1
 2004/11/04, 0:15,17.5,56,13.9,18.1
 2004/11/04, 0:30,17.3,57,13.9,18
 2004/11/04, 0:45,17.3,57,13.8,18
 2004/11/04, 1:00,17.3,57,13.7,18
 2004/11/04, 1:15,17.1,57,13.5,18
 2004/11/04, 1:30,17.1,57,13.6,17.9
 2004/11/04, 1:45,17,57,13.3,17.9
 2004/11/04, 2:00,16.9,58,13.2,17.9
 2004/11/04, 2:15,16.9,58,13,17.8
 2004/11/04, 2:30,16.8,58,13,17.8
 2004/11/04, 2:45,16.8,58,12.8,17.8
 2004/11/04, 3:00,16.5,59,12.7,17.7
 2004/11/04, 3:15,16.5,59,12.6,17.7
 2004/11/04, 3:30,16.4,59,12.5,17.7
 2004/11/04, 3:45,16.3,59,12.4,17.6
 2004/11/04, 4:00,16.2,59,12.4,17.6
 2004/11/04, 4:15,16.2,59,12.3,17.6
 2004/11/04, 4:30,15.8,60,12.4,17.5
 2004/11/04, 4:45,15.8,60,12.3,18.1
 2004/11/04, 5:00,15.8,60,12.6,18
 2004/11/04, 5:15,15.9,60,12.2,18
 2004/11/04, 5:30,15.7,60,12.1,18
 2004/11/04, 5:45,15.6,60,12.1,17.9
 2004/11/04, 6:00,15.5,60,12.3,17.8
 2004/11/04, 6:15,15.5,61,12.1,17.8
 2004/11/04, 6:30,15.4,60,12.1,17.8
 2004/11/04, 6:45,15.5,61,12,17.7
 2004/11/04, 7:00,15.1,61,12.3,17.9
 2004/11/04, 7:15,15.1,62,12.7,17.8
 2004/11/04, 7:30,15.6,62,12.7,18.3
 2004/11/04, 7:45,16.3,59,13,18.3
 2004/11/04, 8:00,17,59,13.5,18.3
 2004/11/04, 8:15,17.3,59,14.5,18.2
 2004/11/04, 8:30,17.4,58,15.4,18.3
 2004/11/04, 8:45,17.3,55,16.1,18.3
 2004/11/04, 9:00,17.1,57,15.7,18.2
 2004/11/04, 9:15,17,56,15.6,18.2
 2004/11/04, 9:30,16.7,57,15.4,18.1
 2004/11/04, 9:45,16.5,57,15.5,18.1
 2004/11/04,10:00,16.6,58,15.7,18.4
 2004/11/04,10:15,16.7,58,16,18.4
 2004/11/04,10:30,16.8,59,16.2,18.3
 2004/11/04,10:45,16.7,60,16.3,18.3
 2004/11/04,11:00,16.9,60,16.5,18.3
 2004/11/04,11:15,17,60,16.7,18.2
 2004/11/04,11:30,17,61,16.6,18.2
 2004/11/04,11:45,17.2,61,16.9,18.2
 2004/11/04,12:00,17.4,60,17.1,18.1
 2004/11/04,12:15,17.3,61,17.1,18.1
 2004/11/04,12:30,17.5,60,17.2,18.1
 2004/11/04,12:45,17.5,60,17.2,18
 2004/11/04,13:00,17.4,61,17.1,18
 2004/11/04,13:15,17.3,61,17.1,18
 2004/11/04,13:30,17.4,61,17.2,18
 2004/11/04,13:45,17.7,61,17.3,18
 2004/11/04,14:00,17.8,60,17.4,17.9
 2004/11/04,14:15,18.4,59,17.6,17.9
 2004/11/04,14:30,18.6,57,17.7,17.9
 2004/11/04,14:45,18.7,57,17.8,17.9
 2004/11/04,15:00,19,56,17.9,17.9
 2004/11/04,15:15,19.3,55,18,17.9
 2004/11/04,15:30,19.4,54,18,17.9
 2004/11/04,15:45,19.5,53,17.9,17.9
 2004/11/04,16:00,19.4,53,17.9,18.1
 2004/11/04,16:15,19.3,53,17.7,18.1
 2004/11/04,16:30,19,53,17.5,18.1
 2004/11/04,16:45,18.8,55,17.2,18.1
 2004/11/04,17:00,18.9,58,17,18.1
 2004/11/04,17:15,19,58,16.7,18.1
 2004/11/04,17:30,19.1,60,16.5,18.1
 2004/11/04,17:45,19.3,64,16.3,18
 2004/11/04,18:00,19.3,59,16,18
 2004/11/04,18:15,19,59,15.8,18
 2004/11/04,18:30,19.2,61,15.6,18
 2004/11/04,18:45,19.6,64,15.1,18
 2004/11/04,19:00,19.6,67,15.1,18
 2004/11/04,19:15,19.4,60,14.8,17.8
 2004/11/04,19:30,19.2,60,14.7,18.3
 2004/11/04,19:45,19.1,59,14.5,18.2
 2004/11/04,20:00,18.9,60,14.3,18.5
 2004/11/04,20:15,18.7,61,14.2,18.3
 2004/11/04,20:30,18.7,60,14.2,18.3
 2004/11/04,20:45,18.7,60,13.9,18.2
 2004/11/04,21:00,18.6,61,13.8,18.2
 2004/11/04,21:15,18.5,60,13.7,17.8
 2004/11/04,21:30,18.4,60,13.6,17.8
 2004/11/04,21:45,18.3,61,13.4,17.8
 2004/11/04,22:00,18.1,61,13.3,17.8
 2004/11/04,22:15,17.9,60,13.3,17.7
 2004/11/04,22:30,17.7,61,13.1,17.7
 2004/11/04,22:45,17.7,61,13,17.6
 2004/11/04,23:00,17.5,61,12.8,17.6
 2004/11/04,23:15,17.3,61,12.8,17.5
 2004/11/04,23:30,17.3,62,12.6,17.5
 2004/11/04,23:45,16.9,59,12.6,17.1
 2004/11/05, 0:00,16.9,61,12.3,17.5
 2004/11/05, 0:15,16.7,60,12.6,17.7
 2004/11/05, 0:30,16.5,60,12.3,17.8
 2004/11/05, 0:45,16.3,60,12.2,17.7
 2004/11/05, 1:00,16.2,60,12.2,17.6
 2004/11/05, 1:15,16,60,12.1,17.5
 2004/11/05, 1:30,15.8,61,12,17.5
 2004/11/05, 1:45,15.7,61,12,17.4
 2004/11/05, 2:00,15.6,61,12,17.3
 2004/11/05, 2:15,15.6,62,12,17.3
 2004/11/05, 2:30,15.5,62,11.7,17.2
 2004/11/05, 2:45,15.4,62,11.7,17.2
 2004/11/05, 3:00,15.3,62,11.6,17.1
 2004/11/05, 3:15,15.1,62,11.4,17
 2004/11/05, 3:30,15.1,62,11.6,17
 2004/11/05, 3:45,15,62,11.4,16.9
 2004/11/05, 4:00,14.9,62,11.3,16.8
 2004/11/05, 4:15,14.8,62,11.3,16.8
 2004/11/05, 4:30,14.8,62,11.2,16.7
 2004/11/05, 4:45,14.6,63,11,16.6
 2004/11/05, 5:00,14.5,63,11,16.6
 2004/11/05, 5:15,14.5,63,10.9,16.5
 2004/11/05, 5:30,14.3,63,10.8,16.4
 2004/11/05, 5:45,14.4,63,10.6,16.4
 2004/11/05, 6:00,14.2,63,10.7,16.3
 2004/11/05, 6:15,14.2,63,10.6,16.2
 2004/11/05, 6:30,14.1,63,10.7,16.2
 2004/11/05, 6:45,14,63,10.5,16.1
 2004/11/05, 7:00,13.9,63,10.6,16
 2004/11/05, 7:15,14,64,10.8,16
 2004/11/05, 7:30,14.1,64,10.9,15.9
 2004/11/05, 7:45,14.5,63,11.4,15.8
 2004/11/05, 8:00,14.9,63,11.8,17.7
 2004/11/05, 8:15,15.6,62,12.3,17.7
 2004/11/05, 8:30,15.9,62,13.2,17.7
 2004/11/05, 8:45,17.2,63,14.1,17.6
 2004/11/05, 9:00,17,62,14.7,17
 2004/11/05, 9:15,17,61,15.1,17.6
 2004/11/05, 9:30,16.9,61,15.4,17.5
 2004/11/05, 9:45,16.6,62,15.6,17.5
 2004/11/05,10:00,16.5,63,15.7,17.4
 2004/11/05,10:15,16.7,64,16,17.4
 2004/11/05,10:30,16.6,64,16.2,17.4
 2004/11/05,10:45,16.8,62,16.1,17.3
 2004/11/05,11:00,17,62,16.2,17.3
 2004/11/05,11:15,17.7,59,16.6,17.2
 2004/11/05,11:30,17.3,57,16.5,17.2
 2004/11/05,11:45,17.3,57,16.6,17.5
 2004/11/05,12:00,17.4,57,16.7,17.5
 2004/11/05,12:15,17.6,55,16.8,17.9
 2004/11/05,12:30,18.1,54,17,17.8
 2004/11/05,12:45,18.2,55,17.3,17.8
 2004/11/05,13:00,18.4,51,17.2,17.8
 2004/11/05,13:15,18.5,50,17.3,17.6
 2004/11/05,13:30,18.8,49,17.5,17.7
 2004/11/05,13:45,18.9,49,17.6,17.8
 2004/11/05,14:00,19.4,49,17.7,17.8
 2004/11/05,14:15,19.5,47,17.9,17.8
 2004/11/05,14:30,19.8,48,18.1,17.8
 2004/11/05,14:45,20,47,18.1,17.7
 2004/11/05,15:00,20,46,18.2,17.9
 2004/11/05,15:15,20,47,18.2,17.9
 2004/11/05,15:30,20.2,46,18.3,17.9
 2004/11/05,15:45,20.2,45,18.3,17.9
 2004/11/05,16:00,19.8,47,18,18
 2004/11/05,16:15,19.5,50,18,18.1
 2004/11/05,16:30,19.3,51,17.8,18.2
 2004/11/05,16:45,19.1,52,17.2,18.1
 2004/11/05,17:00,19,53,17.2,18.1
 2004/11/05,17:15,18.9,53,16.3,18.1
 2004/11/05,17:30,19,54,16,18.1
 2004/11/05,17:45,18.9,56,16,18.6
 2004/11/05,18:00,18.5,54,15.7,18.6
 2004/11/05,18:15,17.8,54,15.3,18.5
 2004/11/05,18:30,17.8,55,15.1,18.5
 2004/11/05,18:45,17.6,56,14.9,18.5
 2004/11/05,19:00,18.2,61,15,18.4
 2004/11/05,19:15,18.6,59,15.9,18.4
 2004/11/05,19:30,18.4,58,15.8,18.3
 2004/11/05,19:45,19,60,15.7,18.3
 2004/11/05,20:00,20.1,68,15.5,18.2
 2004/11/05,20:15,19.7,67,15.5,18.3
 2004/11/05,20:30,19,64,16.1,18.2
 2004/11/05,20:45,18.9,68,16,18.2
 2004/11/05,21:00,18.7,67,16,18.1
 2004/11/05,21:15,18.4,65,15.9,18.1
 2004/11/05,21:30,18.3,64,15.7,18
 2004/11/05,21:45,18.2,63,15.7,17.1
 2004/11/05,22:00,18.5,63,15.4,17.9
 2004/11/05,22:15,18.6,64,15.2,18.1
 2004/11/05,22:30,18.6,64,15.1,18
 2004/11/05,22:45,18.9,64,14.8,18
 2004/11/05,23:00,18.9,65,14.8,17.9
 2004/11/05,23:15,18.8,64,14.7,17.8
 2004/11/05,23:30,18.4,65,14.7,17.7
 2004/11/05,23:45,18.1,64,14.6,17.6
 2004/11/06, 0:00,17.8,64,14.6,17.6
 2004/11/06, 0:15,17.5,63,14.8,17.6
 2004/11/06, 0:30,17.4,63,14.6,17.6
 2004/11/06, 0:45,17.3,63,14.5,17.5
 2004/11/06, 1:00,17.1,64,14.3,17.5
 2004/11/06, 1:15,17.1,64,14.3,17.4
 2004/11/06, 1:30,16.9,64,14.3,17.4
 2004/11/06, 1:45,16.8,64,14.2,17.4
 2004/11/06, 2:00,16.8,64,14.2,17.3
 2004/11/06, 2:15,16.6,64,14.1,17.3
 2004/11/06, 2:30,16.6,64,14.1,17.2
 2004/11/06, 2:45,16.4,64,13.9,17.2
 2004/11/06, 3:00,16.4,64,13.9,17.1
 2004/11/06, 3:15,16.4,65,13.8,17.1
 2004/11/06, 3:30,16.2,65,13.7,17.1
 2004/11/06, 3:45,16.2,65,13.7,17
 2004/11/06, 4:00,16.1,65,13.7,17
 2004/11/06, 4:15,16.1,64,13.5,16.9
 2004/11/06, 4:30,15.9,65,13.5,16.9
 2004/11/06, 4:45,15.8,65,13.5,16.8
 2004/11/06, 5:00,15.9,65,13.5,16.8
 2004/11/06, 5:15,15.9,65,13.4,16.7
 2004/11/06, 5:30,15.7,65,13.4,16.7
 2004/11/06, 5:45,15.7,65,13.3,16.7
 2004/11/06, 6:00,15.6,65,13.2,16.6
 2004/11/06, 6:15,15.7,66,13.2,16.6
 2004/11/06, 6:30,15.2,66,13.1,16.5
 2004/11/06, 6:45,15.9,68,13.1,17.8
 2004/11/06, 7:00,16,68,13,18.2
 2004/11/06, 7:15,16,67,12.9,17.2
 2004/11/06, 7:30,16.3,67,13.3,18
 2004/11/06, 7:45,16.5,65,13.4,17.9
 2004/11/06, 8:00,16.8,63,13.7,17.8
 2004/11/06, 8:15,16.7,61,14.2,17.8
 2004/11/06, 8:30,16.9,61,14.9,17.7
 2004/11/06, 8:45,17,61,15.7,17.7
 2004/11/06, 9:00,17.3,61,15.7,18
 2004/11/06, 9:15,17.7,61,15.7,18
 2004/11/06, 9:30,17.9,63,15.7,17.9
 2004/11/06, 9:45,17.7,64,15.7,17.9
 2004/11/06,10:00,17.5,65,15.8,17.8
 2004/11/06,10:15,17.5,65,15.9,17.7
 2004/11/06,10:30,17.3,64,16.3,17.6
 2004/11/06,10:45,17.4,64,16.5,17.6
 2004/11/06,11:00,17.5,64,16.7,17.5
 2004/11/06,11:15,17.7,64,16.7,17.4
 2004/11/06,11:30,17.9,63,17.1,17.8
 2004/11/06,11:45,17.9,62,17.2,17.8
 2004/11/06,12:00,18.1,62,17.3,17.7
 2004/11/06,12:15,18.3,61,17.5,17.7
 2004/11/06,12:30,18.7,60,17.4,17.5
 2004/11/06,12:45,18.9,60,17.3,17.5
 2004/11/06,13:00,19.3,59,17.4,17.5
 2004/11/06,13:15,19.6,58,17.4,17.5
 2004/11/06,13:30,19.9,58,17.5,17.5
 2004/11/06,13:45,20.1,58,17.6,17.5
 2004/11/06,14:00,20,56,18.4,18
 2004/11/06,14:15,20.4,56,18,18.3
 2004/11/06,14:30,20.6,56,18.2,18.2
 2004/11/06,14:45,20.7,55,18.8,18.2
 2004/11/06,15:00,20.8,55,19,18.2
 2004/11/06,15:15,20.8,60,19.1,18.1
 2004/11/06,15:30,20.8,58,19.2,18.1
 2004/11/06,15:45,20.9,61,19.1,18.1
 2004/11/06,16:00,20.6,56,19.1,18.2
 2004/11/06,16:15,20.4,55,18.9,18.2
 2004/11/06,16:30,20.2,57,18.3,18.2
 2004/11/06,16:45,20,58,18,18.2
 2004/11/06,17:00,20,58,18.1,18.1
 2004/11/06,17:15,19.8,59,18.1,18.1
 2004/11/06,17:30,20.2,61,18,18.1
 2004/11/06,17:45,20.4,63,17.8,18.1
 2004/11/06,18:00,19.7,62,17.8,18.1
 2004/11/06,18:15,19.5,62,17.6,18.3
 2004/11/06,18:30,19.9,63,17.4,18.3
 2004/11/06,18:45,19.8,63,17.2,18.3
 2004/11/06,19:00,19.7,63,17.1,18.3
 2004/11/06,19:15,20.4,65,17,18.3
 2004/11/06,19:30,20.4,67,16.8,18.3
 2004/11/06,19:45,20.4,68,16.7,18.3
 2004/11/06,20:00,20.5,68,16.6,17.5
 2004/11/06,20:15,20.6,71,16.5,18.2
 2004/11/06,20:30,20.5,73,16.4,18.2
 2004/11/06,20:45,20.2,73,16.5,18.2
 2004/11/06,21:00,19.8,70,16.5,18.2
 2004/11/06,21:15,20,69,16.3,18.2
 2004/11/06,21:30,20,69,16.2,18.2
 2004/11/06,21:45,19.9,69,16.2,18.2
 2004/11/06,22:00,19.9,69,16,17.2
 2004/11/06,22:15,19.8,68,15.8,17.7
 2004/11/06,22:30,19.6,69,15.7,17.7
 2004/11/06,22:45,19.5,68,15.7,17.6
 2004/11/06,23:00,19.4,68,15.7,17.6
 2004/11/06,23:15,19.5,74,16,17.6
 2004/11/06,23:30,19.4,70,15.9,18.2
 2004/11/06,23:45,19.1,66,15.9,18.2
 2004/11/07, 0:00,19,65,15.8,18.1
 2004/11/07, 0:15,19.3,65,15.5,18.1
 2004/11/07, 0:30,19.3,66,15.5,18
 2004/11/07, 0:45,19.3,66,15.3,18
 2004/11/07, 1:00,19.4,66,15.2,17.9
 2004/11/07, 1:15,19.1,67,15.2,18.3
 2004/11/07, 1:30,19,67,15.1,18.2
 2004/11/07, 1:45,19,68,15.2,18.2
 2004/11/07, 2:00,18.9,68,15.2,18.1
 2004/11/07, 2:15,18.8,68,15.2,18.1
 2004/11/07, 2:30,18.7,68,15.2,18.1
 2004/11/07, 2:45,18.7,68,15.1,18
 2004/11/07, 3:00,18.6,68,15.1,18
 2004/11/07, 3:15,18.4,66,15.2,17.6
 2004/11/07, 3:30,18.2,65,15.2,17.9
 2004/11/07, 3:45,17.9,66,15.3,17.9
 2004/11/07, 4:00,17.9,66,15.3,17.9
 2004/11/07, 4:15,17.7,66,15.2,17.8
 2004/11/07, 4:30,17.6,66,15.2,17.8
 2004/11/07, 4:45,17.6,66,15.2,17.7
 2004/11/07, 5:00,17.5,66,15.3,17.7
 2004/11/07, 5:15,17.4,66,15.1,17.7
 2004/11/07, 5:30,17.4,66,15.1,17.6
 2004/11/07, 5:45,17.4,66,15.1,17.6
 2004/11/07, 6:00,17.3,66,15,17.5
 2004/11/07, 6:15,17.2,67,14.9,17.5
 2004/11/07, 6:30,17.3,67,14.9,17.5
 2004/11/07, 6:45,17.1,67,15,17.4
 2004/11/07, 7:00,17.2,67,14.9,17.4
 2004/11/07, 7:15,17,68,14.9,18.2
 2004/11/07, 7:30,17,68,14.8,18.2
 2004/11/07, 7:45,17.5,68,15.2,18
 2004/11/07, 8:00,17.3,68,15.2,18.1
 2004/11/07, 8:15,17.8,72,14.9,18.1
 2004/11/07, 8:30,17.8,70,14.9,18
 2004/11/07, 8:45,18,65,15.4,18
 2004/11/07, 9:00,18.2,64,16.2,17.9
 2004/11/07, 9:15,18.2,63,16.3,17.9
 2004/11/07, 9:30,18.2,64,16.2,17.8
 2004/11/07, 9:45,18.5,63,16.7,17.8
 2004/11/07,10:00,18.9,66,16.8,17.8
 2004/11/07,10:15,18.9,64,16.9,17.7
 2004/11/07,10:30,19,65,17.1,17.7
 2004/11/07,10:45,19,67,17.3,18
 2004/11/07,11:00,19.1,64,17.7,18
 2004/11/07,11:15,19.1,65,17.8,17.9
 2004/11/07,11:30,19.3,64,17.8,17.9
 2004/11/07,11:45,19.4,64,17.5,17.7
 2004/11/07,12:00,19.7,65,17.6,17.7
 2004/11/07,12:15,19.8,65,17.7,18.1
 2004/11/07,12:30,19.7,65,17.9,17.8
 2004/11/07,12:45,19.9,64,17.8,18
 2004/11/07,13:00,20,67,18,18
 2004/11/07,13:15,20.2,63,18.5,18
 2004/11/07,13:30,20.8,61,18.6,18
 2004/11/07,13:45,20.8,60,18.8,17.7
 2004/11/07,14:00,21,62,18.8,18
 2004/11/07,14:15,20.9,59,18.6,18.4
 2004/11/07,14:30,20.7,56,18.5,18.4
 2004/11/07,14:45,21.4,55,18.7,18.2
 2004/11/07,15:00,21.9,58,18.8,18.3
 2004/11/07,15:15,22,57,18.6,18.3
 2004/11/07,15:30,21.8,55,18.9,18.3
 2004/11/07,15:45,21.7,56,18.7,18.4
 2004/11/07,16:00,21.5,57,18.7,18.4
 2004/11/07,16:15,21.3,58,18.5,18.4
 2004/11/07,16:30,20.9,60,18.2,18.4
 2004/11/07,16:45,21.1,61,17.9,18.4
 2004/11/07,17:00,21.1,61,17.6,18.4
 2004/11/07,17:15,20.8,61,17.4,18.4
 2004/11/07,17:30,20.3,60,17.6,18
 2004/11/07,17:45,20.1,61,17.6,17.9
 2004/11/07,18:00,19.9,61,17.6,18
 2004/11/07,18:15,19.9,61,17.5,18
 2004/11/07,18:30,19.9,62,17.4,18
 2004/11/07,18:45,20,63,17.1,17.9
 2004/11/07,19:00,20,63,17,17.9
 2004/11/07,19:15,20,63,16.9,17.9
 2004/11/07,19:30,19.9,63,16.7,17.9
 2004/11/07,19:45,20,64,16.6,17.9
 2004/11/07,20:00,20.1,66,16.6,17.9
 2004/11/07,20:15,20,66,16.4,17.8